Powrót do katalogu

DELTA 1 DEB

AktywnyLEO
NORAD 42648·DEBRIS·🇺🇸 United States

Wystrzelony Jun 12, 1975 z Vandenberg Space Force Base

Loading…

Następne Przeloty (najbliższe 24 godziny)

TLE

Starzejące sięSource: Space-Track

Epoka: Sep 11, 2026, 14:19 UTC

1 42648U 75052MH  26254.59655155  .00005652  00000-0  70968-2 0  9993
2 42648 100.3403   7.7612 0199152 258.7328  99.1369 13.56595921624131

Śledź DELTA 1 DEB w czasie rzeczywistym z AllMySat

Download on the App Store